{"data":{"norad_id":60413,"epoch":"2026-05-24T23:43:14.399040Z","epoch_age_seconds":79030,"freshness":"FRESH","line1":"1 60413U 24141R   26144.98836110  .00001287  00000+0  49221-4 0  9998","line2":"2 60413  53.1591 247.3803 0001104  95.3400 264.7729 15.34392405101212","mean_motion":15.34392405,"eccentricity":0.0001104,"inclination_deg":53.1591,"raan_deg":247.3803,"arg_perigee_deg":95.34,"mean_anomaly_deg":264.7729,"bstar":4.9221e-5,"rev_number":10121,"period_min":93.848222612911,"perigee_km":461.9705829861,"apogee_km":463.48104549549,"semimajor_km":6840.8628142408,"source":"CELESTRAK","updated_at":"2026-05-25T13:38:19.270551Z"}}